Wind_Speed
23 23 24 25 25 26 27 27 27 28 27 27 26 25 25 25 24 24 24 23 22 22 21 21 21 21 21 20 19 18 17 17 17 18 18 19 20 21 22 23 24 24 24 23 22 21 21 22 22 22 22 21 20 20 20 20 20 21 23 23 23 23 22 21 20 20 20 19 19
24 24 25 26 27 28 28 29 29 29 29 29 28 28 27 27 26 25 25 24 23 23 22 22 22 22 22 21 20 19 18 18 18 18 18 19 20 20 21 22 23 24 24 24 23 22 22 22 22 23 22 21 21 20 20 20 20 21 22 23 23 23 22 21 21 20 20 20 20
23 24 25 26 27 28 29 30 31 31 31 31 31 30 29 28 27 26 26 25 24 23 23 23 23 23 23 22 21 20 20 19 19 19 19 19 20 20 21 21 22 23 24 24 24 23 22 22 23 23 23 22 21 21 20 20 21 21 22 22 22 22 22 22 21 21 21 20 20
20 21 23 24 25 26 28 29 30 31 32 32 32 32 31 30 29 28 27 26 25 25 24 24 24 24 23 23 22 21 21 21 21 20 20 20 21 21 21 21 22 23 24 24 24 24 23 23 23 23 23 23 22 22 21 21 21 22 22 21 21 21 21 22 22 21 21 21 20
19 20 20 21 22 23 24 26 27 28 29 30 31 32 31 31 30 29 28 28 27 27 27 26 26 25 24 23 23 22 22 22 22 22 22 22 22 22 22 22 23 23 24 24 25 25 24 24 24 24 24 24 23 23 23 22 22 22 22 21 21 21 21 22 22 22 21 21 21
18 19 19 19 20 21 22 22 23 24 25 26 28 29 30 30 30 30 29 30 30 30 29 28 27 26 25 24 24 24 24 24 24 24 24 24 24 24 24 24 24 24 25 25 25 25 25 25 25 25 25 25 25 25 24 24 23 23 23 22 22 22 22 22 23 22 22 22 22
18 18 18 18 19 19 20 20 21 21 22 23 24 25 26 27 28 29 30 30 31 31 30 29 28 27 26 26 26 26 26 27 27 27 26 26 26 25 25 25 25 25 25 25 25 25 25 26 26 27 27 27 26 26 25 25 24 24 23 23 23 22 22 22 22 22 22 23 23
17 18 18 18 18 19 19 20 20 21 21 22 22 23 24 25 26 27 28 28 29 29 29 29 29 28 28 28 29 29 29 29 29 29 28 28 27 27 26 26 26 25 25 25 25 25 26 26 26 27 27 27 27 27 26 25 25 24 24 23 23 22 22 22 22 22 22 23 23
18 19 19 19 19 19 20 21 21 22 22 23 23 24 24 25 26 26 27 27 28 28 28 29 29 30 30 31 31 32 32 32 31 31 30 30 29 28 27 27 26 26 26 26 26 26 26 26 26 27 27 27 27 27 27 26 25 25 24 24 23 23 23 22 22 22 22 23 23
19 20 20 20 21 21 21 22 23 23 24 25 25 26 26 27 28 28 28 29 29 30 30 30 31 31 32 32 33 34 34 35 34 34 33 32 30 30 29 28 27 27 27 27 26 26 26 26 27 27 28 28 28 28 27 26 26 25 25 24 24 24 24 23 22 22 22 23 23
20 20 21 21 21 22 22 23 24 24 24 25 26 26 27 28 29 29 30 31 31 31 31 32 32 32 32 33 33 34 35 36 36 36 35 34 32 31 31 30 29 28 28 27 27 26 26 26 27 27 28 28 28 28 28 27 26 26 26 25 25 25 25 24 23 23 23 23 23
21 21 21 21 22 22 23 23 24 24 24 24 25 26 26 27 28 29 30 30 30 31 31 32 32 32 32 33 33 34 34 35 36 36 36 35 34 34 33 32 31 31 30 29 29 28 27 27 27 28 28 28 28 28 28 27 27 27 27 27 26 26 26 25 25 24 23 23 23
21 21 21 22 22 23 23 24 24 24 24 25 25 26 26 27 27 28 28 28 29 30 30 31 31 32 32 32 33 33 33 34 34 35 35 35 35 35 35 34 34 33 33 32 31 29 28 28 28 28 28 28 28 29 28 28 28 27 27 27 27 27 27 26 26 25 24 24 24
21 22 22 23 23 24 24 25 25 25 25 26 26 27 27 27 27 27 27 28 28 29 30 31 31 31 31 32 32 33 33 33 34 34 35 35 36 35 35 35 35 35 34 33 33 31 30 30 29 29 29 29 29 29 29 28 28 28 28 28 28 28 28 28 27 26 25 25 25
22 22 23 24 25 25 26 26 26 26 26 26 27 28 28 28 28 28 28 29 30 30 31 31 32 32 32 32 33 33 33 34 34 34 35 35 35 35 35 35 35 35 34 34 34 33 32 31 31 30 29 29 29 29 28 28 28 28 28 28 29 29 29 29 28 27 27 26 26
23 23 24 25 26 26 26 26 26 25 26 27 28 29 29 30 30 30 31 31 31 32 32 32 32 32 33 33 33 33 33 33 33 34 34 34 35 35 35 34 34 34 34 34 34 33 33 32 32 31 30 30 30 29 29 29 29 29 29 29 29 30 30 30 29 28 28 27 26
23 23 24 25 25 26 26 26 26 26 27 28 29 30 31 31 32 32 32 32 32 32 32 32 33 32 32 33 33 32 32 32 33 33 33 33 34 34 34 34 34 33 33 33 33 33 33 33 32 32 31 31 30 30 30 29 29 29 29 30 30 30 30 30 30 29 29 28 27
23 23 24 24 25 25 25 26 27 27 28 29 31 31 32 32 32 33 33 33 33 33 33 33 33 33 33 33 33 32 32 32 32 33 33 33 33 33 33 33 33 33 32 32 32 32 33 33 32 32 31 31 31 30 30 30 30 30 30 30 30 31 31 31 30 30 29 28 28
23 23 24 24 25 25 26 27 28 29 30 31 32 32 33 33 33 33 34 34 33 33 33 33 33 34 34 33 33 33 33 32 32 33 33 33 33 33 33 33 33 33 32 32 32 32 32 32 32 32 32 32 32 31 31 31 31 31 31 31 31 31 31 31 30 30 29 29 28
23 24 24 25 26 27 28 29 30 31 32 32 33 33 33 33 33 34 34 34 34 34 34 34 34 34 35 35 34 34 34 33 33 33 33 33 33 33 33 33 33 33 33 32 32 32 32 32 32 32 32 32 32 32 32 32 32 31 31 31 31 31 31 31 31 30 30 29 29
24 25 25 26 27 29 30 31 32 32 32 32 32 33 33 33 33 33 34 34 35 34 34 34 35 35 35 35 35 35 35 35 35 34 35 35 35 35 35 35 34 34 34 33 33 33 32 32 32 32 32 32 32 32 32 32 31 31 31 31 31 31 31 30 30 30 30 29 29
25 26 27 28 29 30 31 32 32 32 32 32 32 33 33 33 34 34 34 35 35 35 35 35 35 36 36 36 36 36 37 37 37 36 37 37 37 37 37 36 36 36 36 35 35 35 34 33 33 33 32 32 32 32 32 31 31 31 30 30 30 30 30 30 30 30 29 29 29
27 28 28 29 30 31 31 32 32 32 32 32 32 33 33 34 34 35 35 35 35 35 36 36 36 36 36 36 36 37 37 38 38 39 39 38 38 38 38 38 37 37 37 37 36 36 35 34 33 33 33 32 32 32 32 32 31 30 30 30 29 30 30 30 30 30 30 29 29
28 29 29 30 30 31 31 31 31 31 32 32 33 33 34 34 35 35 35 36 36 36 36 35 36 36 36 36 36 36 36 37 38 39 39 39 38 38 37 37 36 36 36 36 36 35 34 33 32 32 32 32 31 31 31 31 31 30 30 30 30 30 30 30 30 30 30 29 29
29 29 30 30 30 30 31 31 31 31 32 32 33 34 34 35 35 35 35 36 36 36 36 36 36 36 36 36 36 36 36 36 37 37 37 37 37 37 36 35 34 35 35 35 35 35 34 33 32 31 31 30 30 30 30 30 30 31 32 32 31 31 31 31 31 30 30 30 29
29 30 30 30 30 30 30 30 31 31 32 33 33 34 34 35 35 35 35 36 36 37 37 36 36 36 36 36 36 36 36 35 35 35 35 35 35 36 35 35 34 34 34 34 34 34 34 34 34 33 31 30 30 31 31 31 30 31 31 31 30 29 29 30 30 30 30 30 30
29 29 29 30 30 30 31 31 32 32 33 33 34 34 35 35 35 35 35 36 36 37 36 35 35 35 35 35 35 35 35 34 34 34 34 34 35 35 36 35 34 33 33 34 35 35 35 35 35 34 33 31 30 30 29 29 29 29 29 28 28 28 28 28 29 30 30 30 30
29 29 29 30 30 31 31 32 32 33 33 34 34 35 35 35 35 35 35 36 36 35 35 34 33 33 33 31 33 34 34 34 34 34 34 35 35 35 36 35 34 34 35 35 35 35 36 36 36 35 34 34 32 31 30 30 30 29 29 29 29 29 29 30 29 30 31 31 31
28 29 29 30 31 32 32 33 33 33 34 34 34 35 35 35 35 35 35 35 35 34 33 32 31 31 31 32 33 34 35 35 35 35 35 35 36 36 36 35 35 35 36 36 35 35 36 36 36 35 35 34 32 31 30 30 29 29 30 30 31 31 31 30 31 31 32 31 31
28 29 29 30 31 32 33 33 33 34 34 34 35 35 35 35 35 35 34 34 34 34 33 32 31 31 32 33 35 35 35 35 36 35 34 34 35 36 36 36 35 35 36 36 35 35 35 35 35 35 34 34 33 31 30 30 29 30 30 29 29 31 32 32 32 32 32 32 32
28 29 29 30 32 33 33 34 34 34 35 35 35 35 35 34 34 34 34 34 34 34 33 33 33 33 34 34 34 34 35 36 36 35 34 35 35 36 36 36 35 36 36 36 36 36 36 36 35 35 34 34 33 32 30 30 30 30 30 29 29 29 30 31 31 31 31 31 31
28 29 30 31 32 33 34 35 35 35 35 35 35 35 34 34 34 34 34 33 33 33 33 33 33 34 35 35 35 35 35 35 35 35 35 35 35 36 37 36 37 37 37 37 36 36 36 36 36 35 35 34 33 32 31 31 31 31 31 31 32 33 32 30 29 29 29 29 29
29 30 31 32 33 34 35 35 35 35 35 35 35 34 34 34 34 34 34 33 33 33 33 33 33 34 35 36 36 36 36 36 36 36 36 36 35 36 37 37 37 36 36 36 36 36 36 36 35 35 34 34 33 32 32 32 31 31 31 32 34 34 34 32 31 30 29 29 28
29 30 31 32 34 35 35 36 35 35 35 35 34 34 33 33 33 33 33 33 33 32 33 33 33 33 34 35 35 36 36 37 37 36 36 36 36 36 37 37 37 36 36 36 37 37 36 36 36 36 35 35 34 33 33 32 32 32 32 33 34 34 34 34 34 33 32 31 30
30 31 32 33 34 35 35 35 35 34 34 34 34 34 34 33 33 33 33 33 33 33 34 34 34 34 34 34 34 35 36 37 37 38 38 37 37 37 37 38 39 39 38 38 38 38 38 38 38 38 37 36 35 33 33 33 32 32 33 33 34 35 35 35 35 35 35 34 33
30 31 32 34 34 35 35 34 34 34 33 33 33 34 34 34 33 33 33 32 32 33 34 35 34 34 34 35 35 35 35 35 36 37 38 37 37 37 38 39 40 40 40 39 39 39 40 39 39 39 38 36 35 33 32 32 31 32 32 33 33 34 35 35 36 36 36 35 35
30 31 32 33 34 34 34 33 33 33 33 33 33 33 33 33 33 33 33 32 32 33 34 35 35 34 34 35 36 36 37 38 38 38 38 38 37 37 38 39 40 41 41 40 39 39 39 40 39 39 38 36 34 33 31 31 30 30 32 32 32 32 33 33 34 35 36 36 36
31 31 31 32 32 32 32 32 32 32 32 33 33 33 33 33 33 33 32 32 32 33 34 35 35 35 35 36 36 37 38 38 38 38 38 38 38 38 39 39 40 41 40 40 39 38 38 39 39 38 37 35 34 32 31 30 29 29 30 31 30 30 30 30 31 32 34 36 37
31 31 31 31 31 31 31 31 31 31 32 32 32 33 33 32 32 32 32 32 32 32 33 34 35 36 37 37 37 37 38 38 38 38 38 38 39 39 39 39 40 40 40 39 39 38 38 38 38 38 38 37 35 32 30 29 29 29 30 30 29 29 29 29 29 29 30 33 35
31 30 30 29 29 29 30 30 31 31 31 31 31 32 32 32 32 33 33 32 32 32 33 34 36 37 37 37 37 37 38 39 39 39 39 39 39 40 40 40 40 41 41 40 39 39 38 38 39 38 38 36 35 32 30 29 28 29 29 29 29 28 27 28 28 28 28 30 32
30 29 29 28 28 28 28 29 30 31 30 30 31 31 31 32 32 32 32 32 33 33 33 34 36 37 38 37 37 36 37 39 40 41 40 40 40 40 40 40 40 40 40 40 39 38 38 38 38 38 38 36 34 32 30 28 27 28 28 29 28 27 26 26 26 27 27 28 30
Wind_Direction
295 295 295 295 294 293 292 291 291 291 290 288 287 286 285 283 283 283 284 284 284 285 287 290 293 297 299 300 300 300 301 303 306 309 311 313 314 315 315 315 316 317 318 316 312 307 305 304 306 308 310 311 311 310 309 309 310 311 313 314 316 317 317 315 311 307 304 301 300
301 300 300 299 298 296 295 294 294 293 292 290 289 288 286 285 283 283 283 283 283 285 287 289 292 295 296 296 296 295 296 297 300 303 305 307 309 311 311 311 311 312 313 312 310 305 302 301 302 304 305 306 307 307 306 306 306 307 308 309 311 312 312 310 307 305 302 298 297
311 309 308 306 305 303 302 300 299 298 296 295 293 291 288 287 285 284 284 285 286 287 289 291 293 295 295 294 293 292 292 293 296 298 300 302 304 305 306 307 307 307 308 308 306 303 299 298 298 299 300 302 302 302 302 302 303 303 304 305 306 307 307 306 304 302 299 296 294
323 321 319 317 316 314 312 309 307 306 304 302 299 296 292 289 288 287 287 288 289 290 292 294 295 296 295 294 292 291 291 292 294 295 296 297 299 300 301 301 301 301 302 302 301 300 297 295 294 295 296 297 297 297 298 298 299 300 300 300 301 302 302 302 301 300 297 294 292
332 330 328 327 325 324 322 320 318 316 314 311 306 302 297 294 292 291 292 292 293 294 296 297 297 296 296 295 294 294 294 294 295 295 295 295 296 296 296 296 296 296 297 297 297 296 294 292 291 291 291 292 293 293 293 294 294 295 295 296 296 296 297 298 298 297 295 292 291
334 332 331 329 328 327 326 325 324 323 322 319 314 309 305 301 299 298 298 299 300 300 300 300 300 299 299 299 299 299 298 298 297 296 295 294 294 293 293 292 292 292 293 292 291 291 290 289 288 288 287 288 288 288 289 290 290 291 291 291 290 290 292 293 294 294 293 291 289
334 332 330 328 327 326 325 324 324 323 323 322 320 317 313 309 307 306 306 307 307 306 306 305 305 305 305 305 304 303 302 301 299 297 296 294 293 292 291 290 289 289 289 288 287 287 286 285 284 284 284 285 284 285 285 286 287 287 286 286 285 285 285 287 289 291 290 288 288
335 333 331 329 327 325 324 323 322 321 320 320 319 318 316 313 312 310 310 310 311 311 311 310 310 310 310 309 308 306 304 302 301 299 297 295 294 292 291 289 288 287 286 285 284 283 282 282 281 281 281 281 281 282 282 282 283 282 281 280 280 280 280 281 283 285 286 286 286
336 334 332 330 328 325 324 322 321 320 319 317 316 315 314 312 311 310 310 310 310 311 311 311 311 311 311 310 309 307 306 304 302 300 298 297 295 293 292 290 288 287 285 283 282 280 279 278 277 277 277 277 277 278 279 279 278 277 276 276 276 276 276 276 276 278 280 282 282
336 334 332 330 329 327 325 323 322 320 319 317 315 314 313 312 310 309 309 308 308 307 307 307 307 308 308 307 307 306 306 305 303 301 299 297 296 294 293 291 289 287 285 282 281 279 277 275 274 274 274 274 274 274 275 274 274 273 272 272 272 273 273 272 272 273 275 277 278
336 334 333 331 329 328 327 325 324 322 320 319 317 315 314 313 311 310 309 308 307 305 304 303 303 303 302 302 302 302 302 302 301 299 298 296 295 294 292 291 289 287 285 283 281 278 276 273 271 271 271 271 271 271 271 270 269 268 268 269 269 269 269 269 269 270 271 272 274
336 334 333 332 331 330 329 327 326 324 322 320 319 317 315 313 312 311 310 308 306 305 303 302 301 300 299 298 297 297 297 297 296 295 295 294 293 292 291 290 289 287 285 283 281 278 275 271 269 268 268 268 267 267 267 267 266 265 265 266 266 266 266 266 266 266 267 267 269
336 335 333 333 332 331 330 328 327 325 324 322 320 318 315 314 312 311 309 307 305 304 303 302 301 299 298 296 296 295 294 293 292 292 291 291 291 290 289 289 288 287 285 283 281 278 274 271 268 266 265 265 264 264 264 264 262 262 262 262 263 264 264 263 263 264 264 264 264
334 333 332 331 331 330 329 328 327 325 323 321 319 317 315 313 311 310 308 306 304 303 303 302 301 300 298 297 296 295 294 293 292 291 290 289 289 288 288 287 286 285 284 283 281 278 274 271 269 266 265 263 263 262 262 261 260 259 260 260 261 261 262 262 261 262 262 262 262
330 329 329 328 328 327 327 326 325 323 321 319 317 315 313 311 310 308 307 305 304 303 303 302 301 300 299 298 297 296 295 294 292 291 290 289 288 287 286 285 285 283 282 281 279 277 274 272 270 267 265 263 262 262 261 259 259 258 258 258 258 259 260 260 260 259 258 258 259
326 325 325 325 325 325 325 324 322 320 318 316 315 313 311 310 308 307 306 305 304 304 303 302 301 300 299 298 297 296 295 293 292 290 289 288 287 286 285 284 283 282 281 279 278 276 274 272 270 268 266 264 263 262 261 259 258 257 256 256 257 257 257 257 257 256 256 256 256
324 324 324 324 324 323 322 321 319 317 315 314 313 311 309 308 307 306 305 304 304 303 302 301 301 300 299 298 297 295 294 293 292 290 289 288 287 286 285 284 283 282 280 279 277 275 274 272 271 269 267 266 264 263 262 260 258 257 256 255 255 255 255 255 254 254 253 253 253
324 324 324 324 323 321 320 318 317 316 314 312 311 309 308 307 306 305 304 304 303 303 302 301 301 300 299 297 296 295 294 293 291 290 289 288 287 286 285 284 283 282 280 278 276 275 274 272 271 270 268 267 265 264 263 261 260 258 256 255 254 253 253 252 252 251 250 251 251
325 324 324 322 321 319 318 317 316 314 313 311 309 308 306 305 305 304 304 303 303 302 302 301 300 299 298 297 296 295 293 292 291 289 288 288 287 286 285 284 283 282 280 279 277 275 274 273 272 270 269 267 266 265 264 262 260 259 257 255 253 252 251 250 249 249 248 248 250
325 324 322 321 320 318 317 316 315 313 311 309 308 306 305 305 304 304 303 302 302 301 301 300 299 298 297 296 295 294 292 291 290 289 288 287 286 285 284 283 283 282 281 279 278 276 275 273 272 270 269 268 267 265 264 263 261 259 257 255 253 251 249 248 247 247 247 247 248
324 323 321 320 319 317 316 314 313 311 310 308 307 306 305 304 304 303 302 302 301 301 300 298 297 296 296 295 294 293 292 291 289 288 287 286 285 284 283 283 282 282 281 280 278 276 275 273 272 270 269 268 267 266 264 263 261 259 257 254 252 250 248 246 245 245 245 246 247
323 321 320 318 317 316 314 313 311 310 309 307 306 306 305 304 303 302 302 301 300 299 298 297 296 295 295 294 293 292 291 290 289 287 286 285 284 283 283 282 282 281 280 279 278 276 275 274 272 271 269 268 267 266 265 263 262 260 257 254 252 249 247 246 245 244 244 244 245
321 320 318 317 315 314 313 312 311 310 309 308 307 306 305 304 303 302 302 301 300 299 298 297 296 295 294 293 293 292 291 290 289 288 286 285 284 283 282 282 281 280 279 277 276 275 275 274 272 271 270 268 267 266 265 264 262 260 257 255 252 250 248 246 245 244 244 244 245
320 318 317 316 314 313 312 311 311 310 309 308 307 306 305 304 303 303 302 301 299 298 297 297 296 295 294 293 293 292 291 290 289 288 287 286 285 284 283 282 280 279 278 276 275 274 273 273 272 272 271 269 268 267 265 263 261 259 257 255 253 251 249 248 246 244 243 243 244
318 317 316 315 314 313 312 312 311 310 309 308 307 306 305 304 303 303 302 300 299 298 297 297 296 295 294 294 293 292 290 289 288 288 287 287 286 285 283 282 281 279 278 276 275 274 273 272 272 272 271 270 269 267 266 264 261 260 258 256 254 252 250 249 247 245 244 243 244
317 316 315 315 314 313 312 311 311 310 309 308 307 306 305 304 303 302 301 300 299 298 298 297 296 295 295 294 293 292 290 289 288 287 287 287 286 285 284 283 281 280 278 277 275 275 274 273 272 272 271 271 270 268 267 265 263 260 257 255 252 250 249 247 246 245 244 244 245
317 316 315 315 314 313 312 311 311 310 309 308 307 306 305 304 303 302 301 299 299 298 298 297 296 295 295 294 292 291 290 289 289 288 287 286 286 285 284 283 281 280 278 277 276 276 275 275 273 272 272 271 270 269 268 266 264 261 258 255 252 250 248 247 246 246 246 246 247
317 316 315 315 314 313 312 311 311 310 309 308 307 306 305 304 302 301 300 299 299 298 298 297 296 295 295 293 292 291 290 290 289 288 287 286 285 283 282 281 280 279 278 277 277 276 276 275 274 273 272 271 270 269 268 267 265 263 260 257 254 252 250 249 248 247 248 249 248
317 316 316 315 314 313 312 311 310 310 308 308 306 305 304 303 302 301 300 299 299 299 298 297 296 295 294 292 292 291 290 289 289 288 287 285 284 282 281 280 279 279 278 278 277 276 276 275 274 274 272 271 270 269 268 266 265 262 260 258 256 253 251 250 249 249 249 248 248
317 316 315 314 313 312 311 311 310 309 308 307 306 305 304 303 302 301 300 300 299 299 298 297 296 294 292 291 291 291 290 289 288 287 285 284 283 282 281 280 279 279 278 278 277 276 276 275 274 274 273 272 270 269 268 266 264 262 260 258 256 254 252 250 249 248 248 248 248
317 316 315 314 313 312 311 310 310 309 308 307 305 304 303 302 301 301 301 300 300 299 299 298 296 294 292 291 290 290 288 288 287 286 285 284 283 282 282 281 280 279 279 278 278 277 276 275 274 273 272 271 270 268 267 265 263 261 260 259 257 254 252 252 250 248 246 244 244
317 316 315 314 312 311 311 310 309 309 307 306 305 304 303 302 301 301 301 301 300 300 299 298 296 294 293 292 291 289 288 287 286 286 285 283 283 282 282 281 280 279 279 278 277 276 275 275 274 273 272 270 269 267 265 263 261 260 259 258 257 256 255 253 251 249 246 243 240
318 317 315 314 312 311 310 310 309 308 307 306 305 303 302 302 302 302 302 302 301 300 299 297 296 294 293 292 291 290 289 288 287 285 284 283 282 282 281 281 280 279 278 278 277 276 275 274 273 272 271 270 268 266 264 261 259 257 256 256 255 255 254 253 252 251 248 246 243
318 317 315 313 312 311 310 310 309 308 307 306 304 304 303 303 303 303 303 302 302 300 298 296 294 292 291 290 290 289 289 288 287 286 285 284 282 281 280 279 279 278 277 277 276 275 274 273 272 271 270 269 267 265 263 260 258 255 254 253 253 253 252 251 250 250 249 248 246
318 316 315 313 312 311 310 310 309 308 307 306 305 304 304 304 304 303 303 302 301 300 297 296 294 292 291 290 288 288 288 287 286 286 285 283 282 280 278 278 277 277 276 275 274 274 273 271 270 269 268 267 266 264 261 259 257 254 252 251 250 250 249 248 248 247 247 246 245
317 316 314 313 312 311 310 310 309 308 307 306 306 305 305 305 305 304 303 303 301 299 297 296 295 293 292 291 290 288 287 286 285 285 284 283 281 279 278 277 277 277 276 273 272 271 271 270 268 267 266 265 263 261 259 257 256 254 252 250 249 247 246 245 245 244 244 243 243
317 315 314 312 311 310 310 309 309 308 307 306 306 306 306 306 305 305 304 303 301 299 298 297 296 294 292 292 290 289 288 287 286 285 284 282 280 279 277 277 277 276 275 274 272 270 269 269 267 266 264 263 261 259 257 256 254 254 253 252 250 248 246 244 242 241 241 240 239
316 315 313 312 310 309 309 309 308 308 307 306 306 306 306 306 305 305 304 303 301 299 298 297 296 294 293 292 290 289 288 287 286 284 283 281 280 279 278 277 277 276 275 275 273 270 269 268 267 265 263 260 259 257 255 254 253 252 251 251 250 249 246 244 242 240 238 237 237
315 314 313 311 310 309 308 308 308 307 307 307 307 307 307 306 305 304 303 302 300 298 297 296 295 294 294 293 292 290 289 288 286 284 283 281 280 279 278 278 277 277 276 275 274 272 270 269 267 265 262 259 257 255 253 252 250 250 249 249 249 248 246 244 242 240 238 237 237
315 314 313 311 310 309 308 308 307 307 307 307 307 307 306 305 304 303 303 301 299 298 297 296 295 294 294 294 293 291 290 289 288 286 284 282 281 281 280 279 278 278 277 276 275 273 271 269 267 265 263 260 257 254 252 250 248 247 247 246 246 245 244 243 240 239 238 237 236
315 314 313 312 310 309 309 308 308 308 308 307 307 306 305 304 303 303 302 301 300 299 298 296 296 295 295 294 293 292 290 290 290 288 286 284 283 282 282 280 279 278 278 277 276 274 272 270 268 266 264 261 257 254 251 248 247 245 244 244 243 243 242 241 239 237 236 236 235
Height
778 777 777 776 776 775 774 774 774 773 773 772 772 771 771 770 769 769 768 768 768 767 767 766 766 766 766 765 765 765 765 764 764 764 764 764 764 764 763 762 762 761 761 760 759 759 758 758 757 756 756 755 755 754 754 754 754 753 753 752 752 752 751 751 750 750 750 749 749
776 776 776 775 775 774 773 773 772 772 771 771 770 769 769 768 768 767 766 766 766 765 765 764 764 764 764 763 763 763 763 762 762 762 762 762 762 762 761 761 760 760 759 758 758 757 757 756 756 755 754 754 753 753 752 752 752 752 751 751 751 751 750 749 749 749 748 748 748
775 775 774 774 773 773 772 772 771 771 770 770 769 768 767 767 766 766 765 764 764 764 763 763 762 762 762 762 761 761 761 760 760 759 759 759 759 759 759 759 759 758 758 757 756 756 755 755 754 753 753 752 752 751 751 751 750 750 750 749 749 749 749 748 748 747 747 746 746
774 773 773 772 772 772 771 771 770 769 769 768 768 767 766 766 765 764 763 763 763 762 761 761 761 760 760 760 759 759 759 758 758 757 757 757 757 757 757 757 756 756 756 755 755 754 753 753 752 751 751 750 750 749 749 749 749 748 748 748 748 747 747 746 746 746 746 745 744
773 772 772 771 771 770 770 770 769 768 768 767 767 766 765 765 764 763 763 762 761 761 760 759 759 758 758 758 757 757 757 757 756 756 755 754 754 754 754 754 754 753 753 753 752 752 751 751 750 750 749 748 748 748 747 747 747 746 746 746 746 746 745 745 745 744 744 743 743
772 772 771 771 770 770 769 768 768 767 766 766 765 765 764 764 763 763 762 761 760 760 759 758 757 756 756 756 755 755 755 755 754 754 753 752 752 751 751 751 751 751 750 750 750 749 749 749 748 748 747 747 746 746 745 745 745 744 744 744 744 744 743 743 743 742 742 741 741
772 771 771 770 769 769 768 767 767 766 765 765 764 763 763 763 762 762 761 760 759 758 758 757 756 755 754 754 753 753 753 752 752 751 751 750 750 749 749 748 748 748 748 747 747 747 746 746 746 745 745 744 744 743 743 743 743 742 742 742 741 741 741 741 741 741 740 739 739
771 770 770 769 768 768 767 766 766 765 764 763 763 762 762 761 761 760 759 758 758 757 756 755 755 754 753 752 751 751 750 750 749 749 748 748 747 746 746 746 745 745 745 745 744 744 743 743 743 742 742 742 741 741 741 741 741 740 740 739 739 739 739 738 738 738 738 737 737
770 769 769 768 767 767 766 765 765 764 763 762 762 761 760 760 759 758 757 756 756 755 754 753 753 752 751 750 749 748 748 747 747 746 746 745 745 744 743 743 743 742 742 742 741 741 741 740 740 739 739 739 739 738 738 738 738 737 737 737 737 737 736 736 736 736 736 736 735
769 768 768 767 766 766 765 764 763 763 762 761 760 760 759 758 757 756 756 755 754 753 752 751 751 750 749 748 747 746 746 745 744 744 743 743 742 741 741 740 740 739 739 739 739 738 738 737 737 736 736 736 736 736 736 736 735 735 734 734 734 734 734 734 734 734 734 733 733
768 767 767 766 765 764 763 763 762 761 760 759 759 758 757 757 756 755 754 753 752 751 750 749 748 748 747 746 745 744 743 742 742 742 741 741 740 739 738 738 737 737 736 736 736 736 735 734 734 733 733 733 733 733 733 733 733 732 732 732 732 732 731 731 731 732 731 731 731
767 766 766 765 764 763 762 761 761 760 759 758 757 756 756 755 754 753 752 751 750 749 748 747 747 746 745 743 742 741 741 740 740 739 739 738 737 737 736 735 735 734 733 733 733 733 732 732 731 730 730 730 730 730 730 730 730 729 729 729 729 729 729 728 729 729 729 729 729
766 766 765 764 763 762 761 760 759 758 757 757 756 755 754 753 752 751 751 749 748 747 746 745 745 744 743 741 740 739 738 738 737 737 736 736 735 734 733 733 732 731 731 730 730 730 730 729 728 728 727 727 727 727 727 727 727 726 726 726 726 726 726 726 726 727 727 726 726
765 765 764 763 762 761 760 759 758 757 756 755 754 754 753 752 751 750 749 748 746 745 744 743 742 742 741 740 738 737 737 736 735 734 734 733 732 731 731 730 729 728 728 727 727 727 727 726 725 725 724 724 724 724 724 724 724 723 723 723 723 723 723 723 724 724 724 724 724
764 763 763 762 761 760 759 758 757 756 755 754 753 752 751 750 749 748 747 746 744 743 742 741 740 739 738 737 736 735 734 734 733 732 731 730 729 729 728 727 726 726 725 724 724 724 723 723 722 722 721 721 721 721 721 721 721 720 720 720 720 720 720 720 721 721 721 721 721
763 762 761 760 759 758 758 757 756 755 754 753 752 751 750 749 748 746 745 744 742 741 740 739 738 736 735 735 734 733 732 731 730 729 728 727 726 726 725 724 723 722 722 721 721 721 720 720 719 719 718 718 718 718 718 718 717 717 717 717 717 717 717 717 718 718 718 718 718
761 761 760 759 758 757 756 756 755 753 752 751 750 749 748 747 746 744 743 742 740 739 738 736 735 734 733 732 731 731 730 728 728 727 726 724 723 723 722 721 720 719 719 718 718 717 717 716 716 716 715 715 714 714 714 714 714 714 714 714 714 714 714 714 714 715 715 715 715
760 759 758 758 757 756 755 754 753 752 751 749 748 747 746 745 744 742 741 740 738 737 735 734 733 732 731 729 728 728 727 726 725 724 723 722 721 720 718 718 717 716 716 715 715 714 713 713 712 712 712 711 711 711 711 711 711 711 711 711 711 711 711 711 711 711 712 712 712
759 758 757 757 756 755 754 752 751 750 749 748 747 745 744 743 742 740 739 737 736 735 733 732 730 729 728 727 726 725 724 723 722 721 719 718 717 716 715 714 714 713 713 712 711 711 710 709 709 708 708 708 708 707 707 707 707 707 707 707 707 707 707 708 708 708 708 709 709
758 757 756 755 754 753 752 751 749 748 747 746 745 743 742 741 739 738 736 735 734 733 731 730 728 726 725 724 723 722 721 720 719 717 716 715 714 713 712 711 710 710 709 708 708 707 706 706 705 705 705 704 704 704 704 704 704 704 704 704 704 704 704 704 704 705 705 706 706
757 756 755 754 753 751 750 749 748 746 745 744 743 741 740 738 737 736 734 733 731 730 728 727 725 724 722 721 720 718 717 716 716 714 713 712 711 710 709 708 707 706 706 705 704 703 703 702 702 701 701 701 701 700 700 700 700 700 700 700 700 700 700 701 701 701 702 702 703
756 755 753 752 751 750 748 747 746 744 743 742 740 739 737 736 735 733 731 730 729 727 726 724 723 721 720 718 717 715 714 713 712 711 709 708 707 706 705 705 704 703 702 701 700 699 699 698 698 698 698 697 697 697 697 697 696 696 696 697 697 697 697 697 698 698 698 699 699
754 753 752 751 749 748 747 745 744 742 741 739 738 737 735 733 732 730 729 727 726 724 723 721 720 718 717 715 714 712 711 709 708 706 706 705 703 702 702 701 700 699 698 697 696 696 695 695 694 694 694 694 693 693 693 693 693 693 693 693 693 693 694 694 694 695 695 695 696
753 751 750 749 748 746 745 743 742 740 739 737 736 734 733 731 729 728 726 724 723 721 720 718 717 715 714 712 711 709 708 706 704 703 701 700 700 698 698 697 696 695 694 693 692 692 691 691 691 691 690 690 690 690 690 690 690 690 690 690 690 690 690 690 691 691 691 691 692
751 750 748 747 746 744 743 741 740 738 737 735 733 732 730 728 727 725 723 722 720 718 717 715 713 712 710 709 707 706 705 703 701 700 698 697 696 695 694 693 692 691 690 689 688 688 688 688 688 688 687 687 687 686 686 686 686 686 686 686 686 686 686 686 687 687 687 688 688
749 748 746 745 744 742 741 739 738 736 735 733 731 729 728 726 724 723 721 719 717 715 714 712 711 709 707 706 704 702 701 700 698 697 696 694 692 691 690 690 689 687 686 686 685 684 684 684 685 685 685 684 684 683 683 682 682 682 682 682 682 682 682 682 682 683 683 684 684
748 746 745 743 742 740 739 737 736 734 732 731 729 727 725 723 722 720 718 716 714 713 711 709 708 706 705 703 701 699 698 696 695 694 693 691 690 688 687 686 685 684 683 682 681 681 681 681 681 681 681 681 681 680 680 679 678 678 678 678 678 678 678 678 678 679 679 680 680
746 744 743 741 740 738 737 735 734 732 730 728 727 725 723 721 719 717 716 714 712 710 708 707 705 703 702 700 698 696 695 693 692 691 690 688 687 685 684 682 681 680 679 679 678 678 677 677 677 677 678 678 678 677 677 676 675 675 675 674 674 674 674 674 674 675 675 676 676
744 743 741 740 738 736 734 733 731 730 728 726 724 722 720 718 717 715 713 711 709 708 706 704 702 701 699 697 695 693 692 691 689 688 686 685 683 682 680 679 678 676 676 675 675 674 674 673 673 673 674 674 674 674 673 673 672 671 671 670 670 670 670 670 670 671 671 672 672
743 741 739 738 736 734 732 731 729 728 726 724 722 720 718 716 714 712 711 709 707 705 704 702 700 698 696 694 693 691 689 687 686 685 683 681 680 678 677 676 674 673 672 672 671 671 670 670 670 670 670 670 671 671 670 669 668 667 667 666 666 666 666 666 666 666 667 668 668
741 739 738 736 734 732 730 728 727 725 723 721 720 718 716 714 712 710 708 707 705 703 701 700 698 696 693 691 690 688 686 684 683 681 680 678 676 675 673 672 671 670 669 668 668 667 667 666 666 666 666 666 667 667 666 665 664 663 663 662 662 662 662 662 662 663 663 664 664
739 738 736 734 732 730 728 726 725 723 721 719 717 715 713 711 709 708 706 705 703 701 699 697 695 693 690 688 687 685 683 681 679 678 677 675 673 672 670 669 667 666 665 665 664 664 663 663 662 662 662 662 663 662 662 661 660 660 659 658 658 658 658 659 659 659 659 660 661
738 736 734 732 730 728 726 724 722 721 719 717 715 713 711 709 707 705 704 702 701 699 697 694 692 690 688 685 683 681 680 678 676 675 673 672 670 668 667 665 664 662 662 661 661 660 659 659 658 658 658 658 658 658 657 656 656 655 655 654 654 654 655 655 656 656 656 656 657
736 734 732 730 728 726 724 722 720 718 716 714 712 711 709 707 705 703 701 700 698 696 694 692 690 687 685 683 681 679 677 675 673 671 670 668 667 665 663 661 660 658 658 657 657 656 656 655 655 654 654 654 654 653 653 652 651 651 650 649 650 650 651 651 651 652 652 653 653
734 733 730 728 726 724 722 720 718 716 714 712 710 708 706 705 703 701 699 698 696 694 691 689 687 685 682 680 678 676 674 672 669 668 666 665 663 661 659 657 655 654 654 653 653 652 651 651 650 650 650 650 650 649 648 647 646 646 645 645 645 645 646 647 647 648 648 649 650
733 731 729 726 724 722 720 718 716 714 712 710 708 706 704 703 701 699 697 696 693 691 688 686 683 681 679 677 675 673 671 669 666 664 662 661 659 657 654 652 650 649 649 649 648 647 646 646 646 646 646 646 645 644 643 643 642 641 640 640 640 640 641 642 642 643 644 645 645
731 730 728 725 723 720 718 716 715 713 710 708 706 704 703 701 698 697 695 693 691 688 685 683 681 678 676 674 672 670 667 666 663 661 658 656 655 653 650 647 645 644 643 644 643 642 642 641 641 641 641 641 640 640 639 638 637 636 636 636 636 636 636 637 637 638 639 639 640
730 728 726 724 721 719 717 715 713 711 709 707 705 703 701 699 697 695 693 691 689 686 683 680 678 676 673 671 669 666 663 661 660 658 655 652 651 649 646 643 641 639 638 639 638 638 637 636 636 636 636 636 636 635 634 634 633 632 632 631 631 631 632 633 633 633 633 634 635
728 726 725 722 720 718 716 714 712 710 708 705 703 701 699 697 695 693 691 689 687 684 681 678 675 673 670 668 666 662 659 657 656 654 651 648 646 644 643 640 637 634 634 634 634 633 632 632 631 631 631 632 631 631 630 629 628 627 627 627 627 627 628 628 629 629 629 629 630
726 725 723 721 719 717 715 712 710 708 706 704 702 699 697 695 693 691 688 686 685 682 680 676 673 670 667 665 663 659 656 653 651 650 647 645 642 640 639 636 633 631 629 629 629 629 628 627 627 626 626 627 626 626 625 624 624 623 622 622 623 623 623 624 624 625 625 625 626
725 723 721 719 718 716 713 711 709 707 705 703 701 698 696 693 691 689 686 684 682 680 677 674 671 667 665 663 660 657 653 650 647 645 643 641 639 636 635 633 630 627 626 625 624 624 623 622 622 621 621 622 622 621 621 620 619 618 617 618 618 619 619 620 620 621 621 622 622